STARLINK-4433, 53478

Orbit data source: Space-Track

STARLINK-4433, 53478 is a payload satellite owned by SpaceX/Seattle (US) in SSO that was launched on Fri, 12 Aug 2022 UTC via an FALCON 9 launch vehicle from the Air Force Western Test Range (AFWTR). Payload-class satellites include a variety of spacecraft equipped with specific instruments for various scientific and technological missions. These include communications satellites like Starlink; space stations such as the ISS; scientific satellites like the Hubble; Earth observation satellites from companies like Planet Labs, Umbra, and HawkEye 360; GPS; miniature CubeSats for education and research; and military/defense satellites.

Loading next visibility...
Identifier
53478, 2022-099P
Orbit
SSO
Country
Flag of USUS
Related business
Manufacturer
SpaceX/Seattle
Mission
Operational Commercial Communications
Bus & Motor
STARLINK, Unknown motor
Mass
300 kg wet, ~275 kg dry
Launch date (UTC)
2022-08-12 (4 years ago)
Launch vehicle
FALCON 9
Launch site
Air Force Western Test Range (AFWTR)
Object type
Payload
Rocket body
Debris
Shape & HBR
Box + 1 Pan, 10.1 m
Radar Cross Section
13.562 m², Large (>1 m²)

Expand to show TLE details & history
Last TLE update: 15 hours ago

TLE from 15 hours ago
0 STARLINK-4433
1 53478U 22099P   26145.34441432  .00001010  00000-0  74020-4 0  9991
2 53478  97.4485 265.2254 0000834 129.2358 230.8944 15.05649974207501
Epoch: 2026-05-25T08:15Z
TLE epoch observation values (Epoch: 2026-05-25T08:15:57.397Z)
Latitude
0.00006°
Longitude
-101.69731°
Altitude
552.945 km
Speed
7.585 km/s
True Right ascension
17h 40m 54s
True Declination
0° 00' 00"
Sunlit
Object was in full shadow at epoch
Visualization orbit readout
Latitude
Unknown
Longitude
Unknown
Altitude
Unknown
Speed
Unknown
Apparent Right ascension
Unknown
Apparent Declination
Unknown
Sunlit
N/A
Visualization observer readout
Local Sidereal Time
08:01:40
Azimuth
Unknown
Elevation
Unknown
Doppler factor
Unknown
Orbital elements
Apogee altitude
547.076 km
Perigee altitude
545.921 km
Semi-major axis
6,924.635 km
Eccentricity
0.00008
Inclination
97.4485°
RAAN
265.2254°
Arg. of periapsis
129.2358°
True anomaly
230.88698°
Mean anomaly
230.8944°
Eccentric anomaly
230.89069°
Mean motion
3.76659 °/min
Orbital period
95.58 mins
BSTAR
0.00007402
Loading maneuver chart data...
Computing Atmospheric mass density...
Loading historical data...
Loading historical data...
Loading historical data...
Loading historical data...
Loading historical data...
Loading historical data...
Loading historical data...

Documentation

Showing up to 5 results
|